Regional Weather Roundup
Issued by NWS Goodland, KS

Home | Current Version | Previous Version | Graphics & Text | Print | Product List | Glossary On
Versions: 1 2 3 4 5 6 7 8 9 10 11 12 13 14 15 16 17 18 19 20 21 22 23 24 25 26 27 28 29 30 31 32 33 34 35 36 37 38 39 40 41 42 43 44 45 46 47 48 49 50
000
ASUS43 KGLD 291708
RWRGLD

GOODLAND FORECAST AREA HOURLY WEATHER ROUNDUP
NATIONAL WEATHER SERVICE GOODLAND KS
1100 AM MDT MON AUG 29 2016

...OFFICIAL OBSERVATIONS...

CITY           SKY/WX    TMP DP  RH WIND       PRES   REMARKS
GOODLAND KS    CLOUDY    71  62  73 S13       30.26R
HILL CITY KS   CLOUDY    71  68  90 SW5       30.24S
IMPERIAL NEB   CLOUDY    74  64  71 SW7       30.23R
MCCOOK NEB     CLOUDY    74  66  76 SW8       30.22R
AKRON CO       CLOUDY    77  49  37 E8        30.29S
BURLINGTON CO  CLOUDY    72  60  66 SE15      30.28S
LIMON CO       CLOUDY    74  50  42 E10       30.33R
$$

...UNOFFICIAL OBSERVATIONS...

CITY           SKY/WX    TMP DP  RH WIND       PRES   REMARKS
COLBY KS       PTSUNNY   72  66  83 SE12      30.27S
LENORA KS        N/A     69  32  25 MISG        N/A
NORTON KS      MOSUNNY   73  63  68 S12       30.22R
SHARON SPRINGS   N/A     69  64  84 E5          N/A
TRIBUNE KS     CLOUDY    68  64  88 CALM      30.29R
TRENTON NEB      N/A     74  32  21 MISG        N/A
KIT CARSON CO    N/A     68  60  74 MISG        N/A
YUMA CO          N/A     74  59  58 E7          N/A
$$



USA.gov is the U.S. government's official web portal to all federal, state and local government web resources and services.